Time,TemperatureF,DewpointF,PressureIn,WindDirection,WindDirectionDegrees,WindSpeedMPH,WindSpeedGustMPH,Humidity,HourlyPrecipIn,Conditions,Clouds,dailyrainin,SoftwareType,DateUTC
2013-02-22 00:01:00,27.0,25.0,29.90,East,101,12.0,16.0,92,0.00,,,0.00,,2013-02-22 06:01:00,
2013-02-22 00:12:00,27.0,25.0,29.90,East,101,12.0,16.0,92,0.00,,,0.00,,2013-02-22 06:12:00,
2013-02-22 00:22:00,27.0,25.0,29.89,ESE,107,11.0,17.0,92,0.00,,,0.00,,2013-02-22 06:22:00,
2013-02-22 00:31:00,27.0,25.0,29.89,East,94,11.0,15.0,92,0.00,,,0.00,,2013-02-22 06:31:00,
2013-02-22 00:42:00,27.0,25.0,29.89,East,94,11.0,15.0,92,0.00,,,0.00,,2013-02-22 06:42:00,
2013-02-22 00:51:00,27.0,25.0,29.89,ESE,113,9.0,15.0,92,0.00,,,0.00,,2013-02-22 06:51:00,
2013-02-22 01:01:00,28.0,26.0,29.88,ESE,110,8.0,12.0,92,0.00,,,0.00,,2013-02-22 07:01:00,
2013-02-22 01:11:00,28.0,26.0,29.88,ESE,110,8.0,12.0,92,0.00,,,0.00,,2013-02-22 07:11:00,
2013-02-22 01:21:00,28.0,26.0,29.88,East,98,7.0,9.0,92,0.00,,,0.00,,2013-02-22 07:21:00,
2013-02-22 01:31:00,28.0,26.0,29.88,ESE,115,5.0,7.0,92,0.00,,,0.00,,2013-02-22 07:31:00,
2013-02-22 01:42:00,28.0,26.0,29.88,ESE,115,5.0,7.0,92,0.00,,,0.00,,2013-02-22 07:42:00,
2013-02-22 01:51:00,29.0,27.0,29.88,ESE,117,6.0,9.0,93,0.00,,,0.00,,2013-02-22 07:51:00,
2013-02-22 02:01:00,29.0,27.0,29.88,ESE,115,7.0,10.0,93,0.00,,,0.00,,2013-02-22 08:01:00,
2013-02-22 02:11:00,29.0,27.0,29.88,ESE,115,7.0,10.0,93,0.00,,,0.00,,2013-02-22 08:11:00,
2013-02-22 02:21:00,29.0,27.0,29.87,ESE,115,7.0,10.0,93,0.00,,,0.00,,2013-02-22 08:21:00,
2013-02-22 02:31:00,29.0,27.0,29.86,ESE,115,6.0,9.0,93,0.00,,,0.00,,2013-02-22 08:31:00,
2013-02-22 02:42:00,29.0,27.0,29.86,ESE,115,6.0,9.0,93,0.00,,,0.00,,2013-02-22 08:42:00,
2013-02-22 02:52:00,29.0,27.0,29.85,ESE,116,7.0,9.0,93,0.00,,,0.00,,2013-02-22 08:52:00,
2013-02-22 03:03:00,29.0,27.0,29.85,East,101,6.0,9.0,93,0.00,,,0.00,,2013-02-22 09:03:00,
2013-02-22 03:11:00,29.0,27.0,29.84,ESE,115,5.0,8.0,93,0.00,,,0.00,,2013-02-22 09:11:00,
2013-02-22 03:21:00,29.0,27.0,29.84,ESE,115,5.0,8.0,93,0.00,,,0.00,,2013-02-22 09:21:00,
2013-02-22 03:32:00,29.0,27.0,29.83,SE,127,5.0,8.0,93,0.00,,,0.00,,2013-02-22 09:32:00,
2013-02-22 03:42:00,29.0,27.0,29.83,SE,127,5.0,8.0,93,0.00,,,0.00,,2013-02-22 09:42:00,
2013-02-22 03:51:00,29.0,27.0,29.83,SE,128,4.0,8.0,93,0.00,,,0.00,,2013-02-22 09:51:00,
2013-02-22 04:01:00,29.0,27.0,29.83,ESE,123,3.0,7.0,93,0.00,,,0.00,,2013-02-22 10:01:00,
2013-02-22 04:11:00,29.0,27.0,29.83,ESE,123,3.0,7.0,93,0.00,,,0.00,,2013-02-22 10:11:00,
2013-02-22 04:21:00,29.0,27.0,29.82,ESE,112,3.0,5.0,93,0.00,,,0.00,,2013-02-22 10:21:00,
2013-02-22 04:32:00,29.0,27.0,29.82,SE,126,3.0,5.0,93,0.00,,,0.00,,2013-02-22 10:32:00,
2013-02-22 04:42:00,29.0,27.0,29.82,SE,126,3.0,5.0,93,0.00,,,0.00,,2013-02-22 10:42:00,
2013-02-22 04:51:00,29.0,27.0,29.82,ESE,115,3.0,4.0,93,0.00,,,0.00,,2013-02-22 10:51:00,
2013-02-22 05:01:00,29.0,27.0,29.82,ESE,118,2.0,4.0,93,0.00,,,0.00,,2013-02-22 11:01:00,
2013-02-22 05:11:00,29.0,27.0,29.82,ESE,118,2.0,4.0,93,0.00,,,0.00,,2013-02-22 11:11:00,
2013-02-22 05:21:00,29.0,27.0,29.82,ESE,120,2.0,4.0,93,0.00,,,0.00,,2013-02-22 11:21:00,
2013-02-22 05:32:00,29.0,27.0,29.82,ESE,120,2.0,3.0,93,0.00,,,0.00,,2013-02-22 11:32:00,
2013-02-22 05:42:00,29.0,27.0,29.82,ESE,120,2.0,3.0,93,0.00,,,0.00,,2013-02-22 11:42:00,
2013-02-22 05:52:00,29.0,27.0,29.82,ESE,115,2.0,4.0,93,0.00,,,0.00,,2013-02-22 11:52:00,
2013-02-22 06:02:00,29.0,27.0,29.81,SE,130,2.0,3.0,93,0.00,,,0.00,,2013-02-22 12:02:00,
2013-02-22 06:11:00,29.0,27.0,29.81,SE,130,2.0,3.0,93,0.00,,,0.00,,2013-02-22 12:11:00,
2013-02-22 06:22:00,29.0,27.0,29.82,SE,131,2.0,4.0,93,0.00,,,0.00,,2013-02-22 12:22:00,
2013-02-22 06:32:00,29.0,27.0,29.81,SE,134,1.0,4.0,93,0.00,,,0.00,,2013-02-22 12:32:00,
2013-02-22 06:42:00,29.0,27.0,29.81,SE,134,1.0,4.0,93,0.00,,,0.00,,2013-02-22 12:42:00,
2013-02-22 06:52:00,30.0,28.0,29.81,SE,134,1.0,3.0,93,0.00,,,0.00,,2013-02-22 12:52:00,
2013-02-22 07:02:00,30.0,28.0,29.80,SE,138,1.0,4.0,94,0.00,,,0.00,,2013-02-22 13:02:00,
2013-02-22 07:11:00,30.0,28.0,29.80,SE,138,1.0,4.0,94,0.00,,,0.00,,2013-02-22 13:11:00,
2013-02-22 07:22:00,30.0,28.0,29.81,SSW,198,1.0,4.0,94,0.00,,,0.00,,2013-02-22 13:22:00,
2013-02-22 07:32:00,31.0,29.0,29.81,South,188,3.0,5.0,94,0.00,,,0.00,,2013-02-22 13:32:00,
2013-02-22 07:42:00,31.0,29.0,29.81,South,188,3.0,5.0,94,0.00,,,0.00,,2013-02-22 13:42:00,
2013-02-22 07:52:00,31.0,29.0,29.82,South,190,5.0,9.0,94,0.00,,,0.00,,2013-02-22 13:52:00,
2013-02-22 08:01:00,31.0,29.0,29.82,South,182,5.0,7.0,94,0.00,,,0.00,,2013-02-22 14:01:00,
2013-02-22 08:11:00,31.0,29.0,29.82,South,189,5.0,8.0,93,0.00,,,0.00,,2013-02-22 14:11:00,
2013-02-22 08:21:00,31.0,29.0,29.82,South,189,5.0,8.0,93,0.00,,,0.00,,2013-02-22 14:21:00,
2013-02-22 08:32:00,31.0,29.0,29.83,South,178,3.0,8.0,94,0.00,,,0.00,,2013-02-22 14:32:00,
2013-02-22 08:42:00,31.0,29.0,29.83,South,178,3.0,8.0,94,0.00,,,0.00,,2013-02-22 14:42:00,
2013-02-22 08:52:00,31.0,29.0,29.83,South,188,4.0,7.0,94,0.00,,,0.00,,2013-02-22 14:52:00,
2013-02-22 09:01:00,31.0,29.0,29.83,South,175,3.0,7.0,94,0.00,,,0.00,,2013-02-22 15:01:00,
2013-02-22 09:11:00,31.0,29.0,29.83,South,175,3.0,7.0,94,0.00,,,0.00,,2013-02-22 15:11:00,
2013-02-22 09:21:00,31.0,29.0,29.84,SW,225,2.0,6.0,94,0.00,,,0.00,,2013-02-22 15:21:00,
2013-02-22 09:32:00,32.0,30.0,29.84,South,187,3.0,7.0,94,0.00,,,0.00,,2013-02-22 15:32:00,
2013-02-22 09:42:00,32.0,30.0,29.84,South,187,3.0,7.0,94,0.00,,,0.00,,2013-02-22 15:42:00,
2013-02-22 09:52:00,32.0,30.0,29.84,West,266,3.0,9.0,94,0.00,,,0.00,,2013-02-22 15:52:00,
2013-02-22 10:01:00,32.0,30.0,29.84,South,179,4.0,11.0,94,0.00,,,0.00,,2013-02-22 16:01:00,
2013-02-22 10:12:00,32.0,30.0,29.84,South,179,4.0,11.0,94,0.00,,,0.00,,2013-02-22 16:12:00,
2013-02-22 10:21:00,32.0,30.0,29.85,SSW,205,2.0,7.0,94,0.00,,,0.00,,2013-02-22 16:21:00,
2013-02-22 10:32:00,32.0,30.0,29.86,SW,235,4.0,10.0,94,0.00,,,0.00,,2013-02-22 16:32:00,
2013-02-22 10:42:00,32.0,30.0,29.86,SW,235,4.0,10.0,94,0.00,,,0.00,,2013-02-22 16:42:00,
2013-02-22 10:52:00,32.0,30.0,29.86,SW,236,5.0,13.0,93,0.00,,,0.00,,2013-02-22 16:52:00,
2013-02-22 11:01:00,32.0,30.0,29.86,SW,232,5.0,13.0,93,0.01,,,0.01,,2013-02-22 17:01:00,
2013-02-22 11:11:00,32.0,30.0,29.86,SW,232,5.0,13.0,93,0.01,,,0.01,,2013-02-22 17:11:00,
2013-02-22 11:21:00,32.0,30.0,29.87,SW,231,5.0,14.0,93,0.01,,,0.01,,2013-02-22 17:21:00,
2013-02-22 11:32:00,32.0,30.0,29.87,West,267,5.0,13.0,93,0.01,,,0.01,,2013-02-22 17:32:00,
2013-02-22 11:42:00,32.0,30.0,29.87,West,267,5.0,13.0,93,0.01,,,0.01,,2013-02-22 17:42:00,
2013-02-22 11:52:00,32.0,30.0,29.87,SW,219,6.0,12.0,92,0.02,,,0.02,,2013-02-22 17:52:00,
2013-02-22 12:01:00,32.0,30.0,29.88,WSW,246,6.0,13.0,92,0.01,,,0.02,,2013-02-22 18:01:00,
2013-02-22 12:12:00,32.0,30.0,29.88,WSW,246,6.0,13.0,92,0.01,,,0.02,,2013-02-22 18:12:00,
2013-02-22 12:22:00,32.0,30.0,29.88,WSW,241,4.0,10.0,92,0.01,,,0.02,,2013-02-22 18:22:00,
2013-02-22 12:32:00,32.0,30.0,29.88,West,261,5.0,15.0,91,0.02,,,0.03,,2013-02-22 18:32:00,
2013-02-22 12:42:00,32.0,30.0,29.88,West,261,5.0,15.0,91,0.02,,,0.03,,2013-02-22 18:42:00,
2013-02-22 12:51:00,32.0,29.0,29.87,West,277,7.0,12.0,90,0.01,,,0.03,,2013-02-22 18:51:00,
2013-02-22 13:01:00,33.0,30.0,29.87,WSW,245,5.0,11.0,89,0.01,,,0.03,,2013-02-22 19:01:00,
2013-02-22 13:11:00,33.0,30.0,29.87,WSW,248,4.0,10.0,89,0.01,,,0.03,,2013-02-22 19:11:00,
2013-02-22 13:21:00,33.0,30.0,29.87,WSW,248,4.0,10.0,89,0.01,,,0.03,,2013-02-22 19:21:00,
2013-02-22 13:31:00,32.0,29.0,29.88,SSW,194,4.0,10.0,88,0.01,,,0.04,,2013-02-22 19:31:00,
2013-02-22 13:41:00,32.0,29.0,29.88,SSW,194,4.0,10.0,88,0.01,,,0.04,,2013-02-22 19:41:00,
2013-02-22 13:52:00,32.0,29.0,29.88,West,265,7.0,13.0,87,0.01,,,0.04,,2013-02-22 19:52:00,
2013-02-22 14:01:00,32.0,28.0,29.88,SSW,212,6.0,13.0,86,0.01,,,0.04,,2013-02-22 20:01:00,
2013-02-22 14:11:00,32.0,28.0,29.88,SSW,212,6.0,13.0,86,0.01,,,0.04,,2013-02-22 20:11:00,
2013-02-22 14:21:00,31.0,27.0,29.89,SW,231,6.0,15.0,86,0.01,,,0.04,,2013-02-22 20:21:00,
2013-02-22 14:32:00,31.0,27.0,29.89,SW,232,7.0,16.0,84,0.00,,,0.04,,2013-02-22 20:32:00,
2013-02-22 14:41:00,31.0,27.0,29.89,SW,232,7.0,16.0,84,0.00,,,0.04,,2013-02-22 20:41:00,
2013-02-22 14:52:00,31.0,27.0,29.90,West,277,6.0,14.0,84,0.00,,,0.04,,2013-02-22 20:52:00,
2013-02-22 15:01:00,31.0,26.0,29.90,SW,236,5.0,11.0,83,0.00,,,0.04,,2013-02-22 21:01:00,
2013-02-22 15:11:00,31.0,26.0,29.90,SW,236,5.0,11.0,83,0.00,,,0.04,,2013-02-22 21:11:00,
2013-02-22 15:21:00,31.0,26.0,29.90,SW,236,5.0,11.0,83,0.00,,,0.04,,2013-02-22 21:21:00,
2013-02-22 15:32:00,31.0,27.0,29.91,WSW,250,4.0,8.0,84,0.00,,,0.04,,2013-02-22 21:32:00,
2013-02-22 15:42:00,31.0,27.0,29.91,WSW,250,4.0,8.0,84,0.00,,,0.04,,2013-02-22 21:42:00,
2013-02-22 15:52:00,30.0,26.0,29.91,SW,227,4.0,11.0,84,0.00,,,0.04,,2013-02-22 21:52:00,
2013-02-22 16:01:00,30.0,25.0,29.91,West,277,4.0,13.0,83,0.00,,,0.04,,2013-02-22 22:01:00,
2013-02-22 16:11:00,30.0,25.0,29.91,West,277,4.0,13.0,83,0.00,,,0.04,,2013-02-22 22:11:00,
2013-02-22 16:21:00,30.0,25.0,29.92,SW,230,5.0,11.0,82,0.00,,,0.04,,2013-02-22 22:21:00,
2013-02-22 16:31:00,29.0,24.0,29.93,NW,311,6.0,14.0,80,0.00,,,0.04,,2013-02-22 22:31:00,
2013-02-22 16:41:00,29.0,24.0,29.93,NW,311,6.0,14.0,80,0.00,,,0.04,,2013-02-22 22:41:00,
2013-02-22 16:51:00,29.0,24.0,29.93,WSW,246,4.0,14.0,80,0.00,,,0.04,,2013-02-22 22:51:00,
2013-02-22 17:01:00,29.0,24.0,29.93,West,269,4.0,10.0,81,0.00,,,0.04,,2013-02-22 23:01:00,
2013-02-22 17:11:00,29.0,24.0,29.93,West,269,4.0,10.0,81,0.00,,,0.04,,2013-02-22 23:11:00,
2013-02-22 17:21:00,28.0,23.0,29.94,WSW,240,4.0,10.0,82,0.00,,,0.04,,2013-02-22 23:21:00,
2013-02-22 17:31:00,28.0,23.0,29.95,West,275,4.0,11.0,81,0.00,,,0.04,,2013-02-22 23:31:00,
2013-02-22 17:41:00,28.0,23.0,29.95,West,275,4.0,11.0,81,0.00,,,0.04,,2013-02-22 23:41:00,
2013-02-22 17:52:00,28.0,23.0,29.95,WNW,296,4.0,9.0,81,0.00,,,0.04,,2013-02-22 23:52:00,
2013-02-22 18:01:00,28.0,23.0,29.96,WSW,251,4.0,11.0,81,0.00,,,0.04,,2013-02-23 00:01:00,
2013-02-22 18:11:00,28.0,23.0,29.96,WSW,251,4.0,11.0,81,0.00,,,0.04,,2013-02-23 00:11:00,
2013-02-22 18:21:00,28.0,23.0,29.96,WSW,248,3.0,10.0,81,0.00,,,0.04,,2013-02-23 00:21:00,
2013-02-22 18:32:00,27.0,22.0,29.97,West,260,5.0,8.0,81,0.00,,,0.04,,2013-02-23 00:32:00,
2013-02-22 18:42:00,27.0,22.0,29.97,West,260,5.0,8.0,81,0.00,,,0.04,,2013-02-23 00:42:00,
2013-02-22 18:51:00,27.0,22.0,29.97,WSW,248,4.0,12.0,81,0.00,,,0.04,,2013-02-23 00:51:00,
2013-02-22 19:01:00,27.0,22.0,29.97,SW,235,5.0,12.0,82,0.00,,,0.04,,2013-02-23 01:01:00,
2013-02-22 19:11:00,27.0,22.0,29.97,SW,235,5.0,12.0,82,0.00,,,0.04,,2013-02-23 01:11:00,
2013-02-22 19:21:00,27.0,22.0,29.98,SSW,212,5.0,10.0,82,0.00,,,0.04,,2013-02-23 01:21:00,
2013-02-22 19:31:00,27.0,22.0,29.98,SW,232,4.0,10.0,82,0.00,,,0.04,,2013-02-23 01:31:00,
2013-02-22 19:42:00,27.0,22.0,29.98,SW,232,4.0,10.0,82,0.00,,,0.04,,2013-02-23 01:42:00,
2013-02-22 19:51:00,27.0,22.0,29.98,WSW,244,4.0,8.0,82,0.00,,,0.04,,2013-02-23 01:51:00,
2013-02-22 20:01:00,27.0,23.0,29.98,WSW,249,5.0,10.0,83,0.00,,,0.04,,2013-02-23 02:01:00,
2013-02-22 20:11:00,27.0,23.0,29.98,WSW,249,5.0,10.0,83,0.00,,,0.04,,2013-02-23 02:11:00,
2013-02-22 20:21:00,27.0,23.0,29.98,WSW,249,5.0,10.0,83,0.00,,,0.04,,2013-02-23 02:21:00,
2013-02-22 20:32:00,26.0,22.0,29.99,West,261,5.0,8.0,83,0.00,,,0.04,,2013-02-23 02:32:00,
2013-02-22 20:42:00,26.0,22.0,29.99,West,261,5.0,8.0,83,0.00,,,0.04,,2013-02-23 02:42:00,
2013-02-22 20:52:00,26.0,22.0,29.98,West,271,5.0,11.0,84,0.00,,,0.04,,2013-02-23 02:52:00,
2013-02-22 21:01:00,26.0,22.0,29.99,SW,230,4.0,9.0,84,0.00,,,0.04,,2013-02-23 03:01:00,
2013-02-22 21:11:00,26.0,22.0,29.99,SW,230,4.0,9.0,84,0.00,,,0.04,,2013-02-23 03:11:00,
2013-02-22 21:21:00,26.0,22.0,29.99,WSW,240,3.0,12.0,84,0.00,,,0.04,,2013-02-23 03:21:00,
2013-02-22 21:32:00,26.0,22.0,30.00,WSW,257,4.0,10.0,84,0.00,,,0.04,,2013-02-23 03:32:00,
2013-02-22 21:41:00,26.0,22.0,30.00,WSW,257,4.0,10.0,84,0.00,,,0.04,,2013-02-23 03:41:00,
2013-02-22 21:51:00,26.0,22.0,29.99,West,270,3.0,9.0,84,0.00,,,0.04,,2013-02-23 03:51:00,
2013-02-22 22:01:00,26.0,22.0,29.99,WSW,239,3.0,9.0,84,0.00,,,0.04,,2013-02-23 04:01:00,
2013-02-22 22:11:00,26.0,22.0,29.99,WSW,239,3.0,9.0,84,0.00,,,0.04,,2013-02-23 04:11:00,
2013-02-22 22:21:00,26.0,22.0,29.99,SW,221,4.0,9.0,84,0.00,,,0.04,,2013-02-23 04:21:00,
2013-02-22 22:31:00,26.0,22.0,30.00,SW,227,3.0,7.0,84,0.00,,,0.04,,2013-02-23 04:31:00,
2013-02-22 22:41:00,26.0,22.0,30.00,SW,227,3.0,7.0,84,0.00,,,0.04,,2013-02-23 04:41:00,
2013-02-22 22:51:00,26.0,22.0,29.99,West,269,3.0,9.0,84,0.00,,,0.04,,2013-02-23 04:51:00,
2013-02-22 23:02:00,26.0,22.0,29.99,West,260,3.0,8.0,83,0.00,,,0.04,,2013-02-23 05:02:00,
2013-02-22 23:12:00,26.0,22.0,29.99,West,260,3.0,8.0,83,0.00,,,0.04,,2013-02-23 05:12:00,
2013-02-22 23:22:00,26.0,22.0,29.99,WSW,246,3.0,7.0,84,0.00,,,0.04,,2013-02-23 05:22:00,
2013-02-22 23:32:00,26.0,22.0,29.99,SW,235,3.0,8.0,83,0.00,,,0.04,,2013-02-23 05:32:00,
2013-02-22 23:41:00,26.0,22.0,29.99,SW,235,3.0,8.0,83,0.00,,,0.04,,2013-02-23 05:41:00,
2013-02-22 23:52:00,25.0,21.0,29.99,WSW,242,2.0,8.0,84,0.00,,,0.04,,2013-02-23 05:52:00,